• In Österreich
  • Länderverzeichnis
  • Für 7 Tage
  • Wassertemperatur
  • Satellitenkarten
  • Wetterkarte
  • News
  • Widgets
  • user-avatar
    Anmelden

    Stündliche Wetter Lezhe

    Heute, 19 Oktober, Donnerstag

    Zeit Temperatur Niederschläge Wind Luftdruck Luftfeuchtigkeit
    00:00 +18°C° 0 mm 1 m/S 739 mmHg 55%
    01:00 +18°C° 0 mm 1 m/S 739 mmHg 55%
    02:00 +18°C° 0 mm 1 m/S 739 mmHg 55%
    03:00 +18°C° 0 mm 1 m/S 739 mmHg 56%
    04:00 +16°C° 0 mm 1 m/S 739 mmHg 56%
    05:00 +18°C° 0 mm 1 m/S 739 mmHg 56%
    06:00 +18°C° 0 mm 1 m/S 739 mmHg 56%
    07:00 +18°C° 0 mm 1 m/S 739 mmHg 57%
    08:00 +20°C° 0 mm 1 m/S 739 mmHg 51%
    09:00 +22°C° 0 mm 1 m/S 739 mmHg 46%
    10:00 +24°C° 0 mm 1 m/S 739 mmHg 41%
    11:00 +25°C° 0 mm 2 m/S 739 mmHg 40%
    12:00 +25°C° 0 mm 2 m/S 739 mmHg 39%
    13:00 +25°C° 0 mm 2 m/S 739 mmHg 39%
    14:00 +25°C° 0 mm 2 m/S 739 mmHg 44%
    15:00 +24°C° 0 mm 2 m/S 738 mmHg 48%
    16:00 +23°C° 0 mm 1 m/S 738 mmHg 53%
    17:00 +21°C° 0 mm 1 m/S 738 mmHg 59%
    18:00 +19°C° 0 mm 1 m/S 739 mmHg 64%
    19:00 +18°C° 0 mm 1 m/S 739 mmHg 70%
    20:00 +16°C° 0 mm 1 m/S 739 mmHg 69%
    21:00 +16°C° 0 mm 1 m/S 739 mmHg 69%
    22:00 +16°C° 0 mm 1 m/S 739 mmHg 69%
    23:00 +16°C° 0 mm 1 m/S 739 mmHg 68%

    Morgen, 20 Oktober, Freitag

    Zeit Temperatur Niederschläge Wind Luftdruck Luftfeuchtigkeit
    00:00 +15°C° 0 mm 1 m/S 739 mmHg 67%
    01:00 +15°C° 0 mm 1 m/S 739 mmHg 67%
    02:00 +15°C° 0 mm 1 m/S 739 mmHg 67%
    03:00 +15°C° 0 mm 1 m/S 739 mmHg 66%
    04:00 +14°C° 0 mm 1 m/S 739 mmHg 66%
    05:00 +15°C° 0 mm 1 m/S 739 mmHg 66%
    06:00 +15°C° 0 mm 1 m/S 739 mmHg 65%
    07:00 +16°C° 0 mm 1 m/S 740 mmHg 64%
    08:00 +19°C° 0 mm 1 m/S 740 mmHg 58%
    09:00 +21°C° 0 mm 1 m/S 740 mmHg 53%
    10:00 +23°C° 0 mm 1 m/S 740 mmHg 48%
    11:00 +23°C° 0 mm 1 m/S 740 mmHg 47%
    12:00 +24°C° 0 mm 2 m/S 740 mmHg 46%
    13:00 +24°C° 0 mm 2 m/S 739 mmHg 45%
    14:00 +23°C° 0 mm 2 m/S 739 mmHg 50%
    15:00 +23°C° 0 mm 2 m/S 739 mmHg 55%
    16:00 +21°C° 0 mm 2 m/S 739 mmHg 59%
    17:00 +20°C° 0 mm 1 m/S 739 mmHg 67%
    18:00 +19°C° 0 mm 1 m/S 740 mmHg 74%
    19:00 +16°C° 0 mm 1 m/S 740 mmHg 81%
    20:00 +16°C° 0 mm 1 m/S 740 mmHg 81%
    21:00 +15°C° 0 mm 1 m/S 740 mmHg 80%
    22:00 +15°C° 0 mm 1 m/S 741 mmHg 80%
    23:00 +15°C° 0 mm 1 m/S 741 mmHg 80%

    übermorgen, 21 Oktober, Samstag

    Zeit Temperatur Niederschläge Wind Luftdruck Luftfeuchtigkeit
    00:00 +15°C° 0 mm 1 m/S 741 mmHg 79%
    01:00 +14°C° 0 mm 1 m/S 741 mmHg 78%
    02:00 +14°C° 0 mm 1 m/S 740 mmHg 77%
    03:00 +14°C° 0 mm 1 m/S 740 mmHg 76%
    04:00 +14°C° 0 mm 1 m/S 740 mmHg 74%
    05:00 +14°C° 0 mm 1 m/S 740 mmHg 72%
    06:00 +15°C° 0 mm 1 m/S 740 mmHg 69%
    07:00 +15°C° 0 mm 1 m/S 740 mmHg 66%
    08:00 +18°C° 0 mm 1 m/S 741 mmHg 59%
    09:00 +21°C° 0 mm 1 m/S 741 mmHg 51%
    10:00 +23°C° 0 mm 1 m/S 741 mmHg 43%
    11:00 +23°C° 0 mm 2 m/S 740 mmHg 42%
    12:00 +24°C° 0 mm 2 m/S 740 mmHg 42%
    13:00 +24°C° 0 mm 3 m/S 740 mmHg 41%
    14:00 +24°C° 0 mm 3 m/S 739 mmHg 47%
    15:00 +22°C° 0 mm 3 m/S 739 mmHg 53%
    16:00 +21°C° 0 mm 2 m/S 739 mmHg 59%
    17:00 +19°C° 0 mm 2 m/S 739 mmHg 65%
    18:00 +18°C° 0 mm 2 m/S 739 mmHg 71%
    19:00 +16°C° 0 mm 1 m/S 740 mmHg 78%
    20:00 +16°C° 0 mm 1 m/S 740 mmHg 76%
    21:00 +16°C° 0 mm 1 m/S 740 mmHg 75%
    22:00 +15°C° 0 mm 1 m/S 740 mmHg 73%
    23:00 +15°C° 0 mm 1 m/S 740 mmHg 72%

    22 Oktober, Sonntag

    Zeit Temperatur Niederschläge Wind Luftdruck Luftfeuchtigkeit
    00:00 +15°C° 0 mm 1 m/S 740 mmHg 71%
    01:00 +15°C° 0 mm 1 m/S 739 mmHg 70%
    02:00 +15°C° 0 mm 1 m/S 739 mmHg 69%
    03:00 +14°C° 0 mm 1 m/S 739 mmHg 69%
    04:00 +14°C° 0 mm 1 m/S 739 mmHg 68%
    05:00 +15°C° 0 mm 1 m/S 739 mmHg 67%
    06:00 +15°C° 0 mm 1 m/S 739 mmHg 65%
    07:00 +15°C° 0 mm 1 m/S 739 mmHg 64%
    08:00 +18°C° 0 mm 1 m/S 739 mmHg 58%
    09:00 +20°C° 0 mm 1 m/S 739 mmHg 51%
    10:00 +23°C° 0 mm 1 m/S 739 mmHg 45%
    11:00 +23°C° 0 mm 1 m/S 738 mmHg 45%
    12:00 +23°C° 0 mm 2 m/S 738 mmHg 44%
    13:00 +24°C° 0 mm 2 m/S 737 mmHg 44%
    14:00 +23°C° 0 mm 2 m/S 737 mmHg 49%
    15:00 +21°C° 0 mm 2 m/S 736 mmHg 55%
    16:00 +21°C° 0 mm 1 m/S 736 mmHg 60%
    17:00 +20°C° 0 mm 1 m/S 736 mmHg 66%
    18:00 +18°C° 0 mm 1 m/S 736 mmHg 73%
    19:00 +16°C° 0 mm 1 m/S 736 mmHg 79%
    20:00 +16°C° 0 mm 1 m/S 736 mmHg 78%
    21:00 +16°C° 0 mm 2 m/S 736 mmHg 76%
    22:00 +16°C° 0 mm 2 m/S 735 mmHg 74%
    23:00 +16°C° 0 mm 2 m/S 735 mmHg 72%

    23 Oktober, Montag

    Zeit Temperatur Niederschläge Wind Luftdruck Luftfeuchtigkeit
    00:00 +16°C° 0 mm 2 m/S 734 mmHg 70%
    01:00 +16°C° 0 mm 3 m/S 734 mmHg 68%
    02:00 +16°C° 0,6 mm 3 m/S 733 mmHg 68%
    03:00 +16°C° 0,6 mm 3 m/S 733 mmHg 68%
    04:00 +14°C° 0,6 mm 3 m/S 732 mmHg 68%
    05:00 +14°C° 1,7 mm 3 m/S 732 mmHg 73%
    06:00 +14°C° 1,7 mm 3 m/S 732 mmHg 79%
    07:00 +14°C° 1,7 mm 3 m/S 731 mmHg 84%
    08:00 +14°C° 0,5 mm 3 m/S 731 mmHg 82%
    09:00 +16°C° 0,5 mm 3 m/S 731 mmHg 80%
    10:00 +17°C° 0,5 mm 3 m/S 731 mmHg 78%
    11:00 +17°C° 0,7 mm 3 m/S 731 mmHg 74%
    12:00 +18°C° 0,7 mm 3 m/S 731 mmHg 70%
    13:00 +18°C° 0,7 mm 4 m/S 731 mmHg 65%
    14:00 +17°C° 0,7 mm 4 m/S 731 mmHg 69%
    15:00 +17°C° 0,7 mm 4 m/S 731 mmHg 73%
    16:00 +16°C° 0,7 mm 3 m/S 731 mmHg 76%
    17:00 +14°C° 0,6 mm 4 m/S 731 mmHg 77%
    18:00 +13°C° 0,6 mm 4 m/S 731 mmHg 78%
    19:00 +12°C° 0,6 mm 4 m/S 732 mmHg 79%
    20:00 +12°C° 0,1 mm 4 m/S 732 mmHg 78%
    21:00 +10°C° 0,1 mm 5 m/S 732 mmHg 77%
    22:00 +10°C° 0,1 mm 5 m/S 733 mmHg 77%
    23:00 +10°C° 0,2 mm 5 m/S 733 mmHg 76%

    24 Oktober, Dienstag

    Zeit Temperatur Niederschläge Wind Luftdruck Luftfeuchtigkeit
    00:00 +10°C° 0,2 mm 5 m/S 733 mmHg 76%
    01:00 +11°C° 0,2 mm 4 m/S 733 mmHg 76%
    02:00 +11°C° 0,2 mm 4 m/S 733 mmHg 76%
    03:00 +11°C° 0,2 mm 4 m/S 733 mmHg 77%
    04:00 +11°C° 0,2 mm 4 m/S 733 mmHg 77%
    05:00 +11°C° 0,1 mm 4 m/S 733 mmHg 77%
    06:00 +10°C° 0,1 mm 5 m/S 734 mmHg 77%
    07:00 +12°C° 0,1 mm 5 m/S 734 mmHg 77%
    08:00 +13°C° 0,1 mm 6 m/S 734 mmHg 74%
    09:00 +13°C° 0,1 mm 6 m/S 735 mmHg 72%
    10:00 +14°C° 0,1 mm 6 m/S 735 mmHg 69%
    11:00 +15°C° 0 mm 7 m/S 736 mmHg 67%
    12:00 +15°C° 0 mm 7 m/S 736 mmHg 65%
    13:00 +16°C° 0 mm 7 m/S 736 mmHg 64%
    14:00 +15°C° 0 mm 7 m/S 736 mmHg 65%
    15:00 +15°C° 0 mm 7 m/S 737 mmHg 66%
    16:00 +14°C° 0 mm 7 m/S 737 mmHg 67%
    17:00 +14°C° 0 mm 6 m/S 737 mmHg 70%
    18:00 +13°C° 0 mm 6 m/S 738 mmHg 72%
    19:00 +11°C° 0 mm 6 m/S 738 mmHg 74%
    20:00 +11°C° 0 mm 6 m/S 739 mmHg 74%
    21:00 +11°C° 0 mm 6 m/S 739 mmHg 74%
    22:00 +10°C° 0 mm 5 m/S 739 mmHg 74%
    23:00 +10°C° 0 mm 5 m/S 739 mmHg 75%
    Mehr zeigen